Temperature
19 19 19 19 19 19 18 18 18 18 18 18 18 17 17 17 17 17 17 17 17 16 16 16 16 16 16 16 16 16 16 16 17 17 17 17 16 16 16 16 16 16 16
19 19 19 19 18 18 18 18 18 18 18 18 17 17 17 17 17 17 16 16 16 16 16 16 16 16 16 16 16 16 16 16 16 16 16 16 16 16 15 16 16 16 16
19 19 19 19 18 18 18 18 18 18 18 17 17 17 17 17 16 16 16 16 16 16 16 15 15 15 15 15 15 15 15 16 15 15 16 16 16 16 15 15 15 15 15
19 19 19 19 18 18 18 18 18 18 17 17 17 17 17 16 16 16 16 16 16 15 15 15 15 15 15 15 15 15 15 15 15 15 15 15 15 15 15 15 15 15 15
19 19 18 18 18 18 18 18 18 17 17 17 17 17 16 16 16 16 16 15 15 15 15 15 15 15 15 15 15 14 14 15 15 15 15 15 15 15 15 15 15 15 15
19 18 18 18 18 18 18 17 17 17 17 16 16 16 16 16 16 16 15 15 15 15 14 15 15 14 14 14 15 14 14 14 14 14 14 14 14 14 14 14 14 14 14
19 18 18 18 18 18 17 17 17 17 16 16 16 16 16 16 16 16 15 15 14 14 14 14 14 14 14 14 14 14 14 14 14 14 14 14 13 14 13 13 13 13 13
18 18 18 17 17 17 17 17 16 16 16 16 16 15 15 15 15 15 15 15 14 14 14 14 13 14 13 13 13 13 13 13 13 13 13 13 13 13 13 13 13 13 13
18 17 17 17 17 17 16 16 16 16 16 15 15 15 15 15 15 15 14 14 14 14 13 13 13 13 13 13 13 12 12 13 13 13 13 13 13 13 13 13 12 13 13
17 17 17 17 17 16 16 16 16 16 15 15 15 15 15 15 15 14 14 14 14 13 13 13 13 13 13 13 12 12 12 12 12 12 12 12 13 13 13 13 12 13 13
17 17 17 17 16 16 16 16 16 15 15 15 15 15 15 14 14 14 14 13 13 13 13 13 13 13 12 12 12 12 12 12 12 12 12 12 12 12 12 12 12 12 12
16 16 16 16 16 16 16 15 15 15 15 15 15 14 14 14 14 14 13 13 13 12 12 12 12 12 12 12 12 12 12 11 11 12 12 12 12 12 12 12 12 12 12
16 16 16 15 15 15 15 15 15 15 15 15 14 14 14 13 13 13 13 13 12 12 12 12 12 12 11 11 11 11 11 11 11 11 12 11 11 11 11 11 11 11 11
16 15 15 15 15 15 15 14 14 14 14 14 14 14 13 13 12 12 12 12 12 12 11 11 11 11 11 11 11 11 11 11 11 11 11 11 11 11 11 11 11 10 11
15 15 15 15 14 14 14 14 14 14 14 14 13 13 13 12 12 12 12 11 11 11 11 11 11 11 11 11 11 10 10 10 10 10 11 11 10 10 10 10 10 10 10
15 15 15 15 14 14 14 14 14 13 13 13 13 13 12 12 12 12 11 11 11 11 10 10 11 11 11 11 11 10 10 10 10 10 10 10 10 10 10 10 10 10 10
15 14 14 14 14 14 14 14 13 13 13 13 12 12 12 12 12 11 11 11 11 10 10 10 10 10 10 10 10 10 10 10 10 9 10 10 9 9 10 9 9 9 9
14 14 14 14 14 14 13 13 13 13 13 12 12 12 12 11 11 11 11 10 10 10 10 10 10 10 10 10 10 10 10 9 9 9 9 9 9 9 9 9 9 9 9
14 13 13 13 13 13 13 13 13 12 12 12 12 12 11 11 11 10 10 10 10 10 10 10 10 10 10 9 9 9 9 9 9 9 9 9 9 9 9 9 9 8 8
13 13 13 13 13 13 12 12 12 12 12 12 12 11 11 10 10 10 10 9 10 10 10 9 9 9 9 9 9 9 9 9 9 8 8 8 8 8 8 8 8 8 8
13 12 12 12 12 12 12 12 12 12 12 12 11 11 10 10 10 10 10 9 9 9 9 9 9 9 8 8 8 8 8 8 8 8 8 8 8 8 8 8 8 8 8
12 12 12 12 12 12 11 11 11 11 11 11 11 10 10 10 10 9 9 9 9 9 9 8 8 8 8 8 8 8 8 8 8 8 8 8 8 8 8 8 8 8 7
12 12 11 11 11 11 11 11 11 11 11 10 10 10 10 9 9 9 9 9 9 8 8 8 8 8 8 8 8 7 7 7 7 7 7 7 7 7 7 7 7 7 7
11 11 11 11 11 11 11 10 10 10 10 10 10 9 9 9 9 9 8 8 8 8 8 8 8 8 8 7 7 7 7 7 7 7 7 7 7 7 7 7 7 7 7
11 11 11 11 10 10 10 10 10 10 10 9 9 9 9 9 8 8 8 8 8 8 8 7 7 7 7 7 7 7 7 7 7 7 6 6 6 6 6 6 7 7 7
11 10 10 10 10 10 10 9 9 9 9 9 9 9 8 8 8 8 8 8 8 7 7 7 7 7 7 7 7 7 7 7 6 6 6 6 6 6 6 6 6 6 6
Wind_Speed
8 7 6 6 7 6 6 5 4 4 3 3 3 3 3 3 2 2 3 2 3 3 3 3 3 4 4 3 3 4 4 4 5 5 4 3 3 5 3 4 5 5 4
8 7 7 7 7 7 6 5 5 5 4 4 4 4 4 3 3 3 3 2 3 4 4 4 4 3 3 4 4 4 4 4 6 6 6 4 4 5 4 5 5 4 4
8 8 7 7 7 6 6 5 5 5 5 5 5 4 4 3 3 3 3 3 3 3 4 4 4 4 4 4 4 4 5 4 5 6 6 4 5 4 4 5 5 4 5
8 8 7 7 6 6 5 5 5 4 5 5 5 5 4 4 4 3 2 2 2 3 3 3 4 4 5 5 4 5 5 5 5 6 6 5 4 4 4 5 4 4 4
8 8 7 7 6 5 5 5 4 4 5 4 5 4 4 4 3 2 2 2 2 3 3 3 3 2 3 4 5 4 5 5 5 5 5 5 4 4 4 5 5 4 3
8 8 7 7 6 6 5 5 4 4 4 4 4 4 4 2 3 1 2 2 2 3 3 3 3 3 3 4 3 4 5 6 6 6 5 5 5 5 5 5 5 5 4
8 8 8 7 7 6 6 5 5 5 5 4 4 4 4 2 4 2 2 3 3 3 3 3 4 2 2 3 3 5 5 5 6 6 6 7 6 6 6 6 5 6 5
8 8 8 8 7 7 6 6 5 5 4 4 4 4 3 3 4 3 3 4 4 4 3 3 4 4 4 4 5 4 5 4 4 5 6 6 6 6 6 7 6 6 6
8 8 8 8 7 7 6 6 5 4 4 5 4 5 5 4 4 3 4 4 4 4 4 3 4 4 3 4 5 5 5 5 3 4 4 5 6 6 6 5 6 5 5
8 8 8 8 7 7 6 6 5 4 4 4 4 5 5 4 4 4 5 5 4 4 4 4 2 2 2 3 4 5 5 5 5 4 4 6 6 5 5 5 6 6 5
7 7 7 7 7 7 6 5 5 5 4 4 4 5 5 4 5 5 5 5 4 5 4 3 1 3 1 3 6 5 5 6 6 6 5 5 4 3 3 3 4 5 6
5 6 6 6 6 5 6 5 5 5 5 5 5 5 4 4 3 4 5 6 6 5 4 3 1 3 2 4 4 4 6 7 6 5 5 4 4 3 3 3 3 3 4
5 6 6 6 5 5 5 5 5 4 5 4 4 4 4 3 4 6 7 6 5 4 3 1 1 3 5 5 5 6 7 5 5 5 5 4 4 3 3 2 3 3 3
5 5 5 5 5 4 4 4 4 4 4 4 4 3 3 3 3 3 4 4 5 5 3 3 6 8 7 4 4 5 4 4 4 5 5 4 4 3 3 3 4 3 3
5 4 5 5 4 4 3 2 3 2 2 3 3 3 3 3 1 1 3 3 3 1 2 3 4 4 4 4 4 3 3 3 4 4 5 4 4 3 3 3 4 4 4
4 4 4 4 4 4 3 2 3 1 3 2 1 2 1 1 2 2 1 0 0 1 3 4 4 5 4 4 4 4 4 4 4 4 4 4 4 4 4 4 3 4 4
4 4 4 4 4 4 4 4 3 2 3 4 4 3 2 3 3 4 4 3 3 4 5 5 4 5 5 5 5 4 4 4 4 4 4 4 4 4 4 4 4 4 4
4 3 3 3 3 4 4 4 4 4 3 2 3 6 7 6 6 5 5 4 3 4 5 5 5 5 5 5 5 5 4 4 4 4 4 4 4 4 4 4 4 4 5
4 3 2 3 4 4 4 4 4 4 3 3 2 3 6 6 6 5 6 4 4 4 4 4 4 5 5 5 5 5 5 4 4 4 4 4 5 5 5 5 4 4 5
2 2 2 4 4 4 4 4 4 3 3 2 2 2 2 3 2 3 4 4 4 4 4 4 4 4 4 4 4 4 5 5 5 5 5 5 5 5 5 5 5 5 5
2 2 4 4 3 3 4 4 3 3 3 3 3 2 2 4 4 3 3 4 4 4 4 4 4 4 4 4 4 5 6 5 5 5 5 5 5 5 5 5 6 6 5
2 2 3 3 3 3 3 3 3 3 3 4 3 3 5 4 3 3 4 4 4 4 4 4 4 4 5 5 5 5 5 5 5 5 5 5 6 6 6 6 5 5 5
3 3 3 3 3 3 4 4 3 3 3 4 3 3 3 4 4 4 4 4 4 4 4 4 5 5 5 5 5 5 5 5 4 5 5 5 6 5 5 6 6 6 6
3 3 3 3 3 3 3 3 3 3 3 4 4 4 4 4 4 4 5 5 5 5 5 5 5 6 6 5 4 5 4 4 4 4 6 6 6 6 6 6 6 6 6
3 3 3 3 3 3 3 4 4 4 4 4 4 4 4 4 5 5 5 5 6 5 5 6 5 5 6 6 5 5 2 2 4 5 4 5 6 6 7 7 6 6 6
2 2 3 3 3 3 3 4 4 4 4 4 4 4 4 5 5 5 5 5 5 5 5 5 6 6 6 6 6 3 1 2 4 6 6 6 6 6 6 6 7 6 6
Wind_Direction
185 190 194 196 202 205 212 216 216 219 216 222 226 229 232 235 234 242 264 268 271 279 282 275 274 288 281 278 282 287 285 280 278 286 293 297 286 282 282 268 260 251 224
185 189 196 200 202 204 206 212 212 212 215 216 224 226 229 229 232 238 253 271 277 280 279 274 271 270 278 284 287 285 283 280 275 280 287 287 275 269 271 269 265 257 258
184 189 193 200 201 204 208 209 209 207 212 221 222 222 221 220 225 233 247 260 273 282 279 272 274 280 281 288 285 284 280 277 275 275 279 283 279 279 278 270 270 270 265
188 191 194 201 202 200 201 204 208 209 212 218 220 219 218 221 224 227 242 267 281 293 290 279 278 280 280 283 278 278 284 286 276 275 281 282 280 282 277 278 277 262 269
189 194 195 197 198 200 200 204 208 213 214 213 218 216 216 218 216 212 235 240 270 288 292 286 279 293 315 297 295 297 289 282 282 282 285 289 296 304 295 291 285 283 277
188 192 191 193 195 197 200 202 206 209 216 214 220 217 218 222 89 77 263 253 258 265 277 285 271 242 236 232 274 300 302 286 291 291 288 296 303 300 302 294 295 289 285
188 189 190 192 193 196 200 197 203 207 209 211 213 211 207 162 131 157 238 254 253 260 269 275 279 291 279 275 244 229 248 253 262 277 288 294 298 304 302 291 290 288 288
189 189 191 193 193 194 197 199 203 206 206 207 207 203 199 179 156 179 220 236 249 255 260 268 279 290 300 307 290 287 284 277 260 259 279 286 294 303 292 282 279 274 270
193 193 193 193 193 194 196 197 200 202 207 213 206 201 203 192 175 195 240 244 242 250 253 255 263 274 325 311 281 280 286 286 247 233 266 277 297 297 289 280 274 270 276
199 195 192 192 193 195 196 199 199 203 210 215 208 210 210 206 175 200 246 248 242 245 241 235 215 260 307 298 276 280 284 292 299 288 256 249 260 257 237 256 274 273 276
201 193 190 191 194 192 190 193 195 201 202 210 210 213 210 199 181 197 241 251 250 247 248 248 234 128 236 278 278 279 295 299 289 282 279 281 278 285 282 276 281 278 281
192 190 189 190 196 186 185 191 195 197 198 200 207 216 210 196 188 194 213 248 280 250 253 254 124 115 261 275 276 294 292 282 278 279 281 286 288 292 303 306 303 294 294
194 190 186 185 190 187 190 192 196 202 215 215 215 220 221 207 189 184 197 220 248 251 255 68 130 211 241 247 236 257 267 268 276 281 283 290 297 304 299 287 278 258 264
192 186 183 186 189 187 197 200 206 216 230 231 231 234 230 217 223 213 210 212 211 224 236 184 197 218 235 253 249 246 259 278 285 284 289 295 296 290 286 297 298 289 285
194 192 191 193 192 190 198 208 222 229 238 245 249 243 242 235 219 327 261 235 242 246 250 247 255 251 249 250 255 263 268 266 268 274 277 278 282 290 296 297 299 296 289
196 204 206 202 192 195 191 187 84 152 120 139 220 249 221 138 144 180 213 307 185 198 240 246 257 264 267 267 267 264 264 272 280 282 280 283 285 288 289 290 292 287 284
207 206 214 210 203 206 210 208 198 164 148 161 166 173 177 166 176 189 183 176 197 199 230 251 258 262 265 266 268 269 267 272 279 276 276 279 282 283 286 288 288 287 285
217 205 219 217 219 219 217 216 217 217 205 197 183 180 176 176 185 192 180 184 216 219 244 257 263 266 266 266 266 269 269 268 261 264 269 274 277 278 281 281 280 288 290
226 226 224 239 237 231 227 228 230 225 216 205 196 171 166 170 177 187 190 220 240 246 252 258 264 268 266 263 261 262 264 266 266 266 268 271 274 274 276 275 273 266 274
225 213 230 239 239 235 232 236 237 229 226 221 220 212 169 199 223 202 208 233 248 253 257 261 267 276 277 275 272 270 268 262 259 257 264 268 269 269 268 268 270 266 264
233 211 214 239 244 239 242 240 239 238 235 232 230 186 187 236 243 237 236 242 251 257 261 267 269 270 267 264 267 269 275 276 271 268 267 265 266 266 266 266 264 265 267
255 247 237 241 244 242 243 241 240 244 250 247 242 197 186 234 244 248 248 248 249 252 258 260 263 268 271 268 267 267 270 278 281 279 277 274 269 266 267 268 271 270 265
251 247 245 243 240 234 238 238 234 238 247 245 241 234 224 238 244 247 253 260 260 259 258 258 263 268 270 268 270 272 273 276 283 291 290 286 281 276 271 267 266 270 267
257 254 251 250 245 243 243 243 239 239 241 237 238 238 235 237 243 249 255 260 261 260 261 260 260 263 267 272 273 270 274 289 289 278 279 280 282 283 276 270 266 263 261
251 251 252 253 254 255 255 254 247 241 244 243 240 242 244 242 245 248 249 253 255 255 258 261 259 259 263 267 272 281 316 322 297 290 265 268 272 273 275 275 271 267 263
252 252 250 251 252 252 252 253 254 253 252 251 248 248 249 247 248 250 252 253 255 255 256 260 262 266 267 260 262 271 247 239 255 278 274 264 267 269 273 276 279 271 266
Height
1524 1526 1528 1529 1531 1532 1533 1534 1535 1535 1535 1536 1536 1536 1536 1535 1535 1535 1535 1535 1534 1533 1533 1532 1531 1530 1531 1531 1530 1530 1530 1529 1528 1527 1527 1526 1524 1523 1523 1522 1521 1521 1520
1521 1523 1525 1527 1528 1530 1531 1532 1532 1533 1533 1533 1534 1534 1534 1534 1533 1533 1533 1533 1532 1531 1530 1529 1529 1529 1528 1527 1527 1527 1526 1525 1525 1524 1524 1523 1522 1520 1519 1518 1518 1518 1517
1519 1521 1523 1524 1526 1527 1528 1529 1529 1530 1530 1531 1531 1531 1531 1531 1531 1531 1531 1530 1529 1528 1527 1527 1526 1526 1525 1525 1524 1524 1523 1523 1522 1521 1520 1520 1519 1518 1516 1516 1515 1514 1514
1516 1518 1519 1521 1522 1524 1525 1526 1526 1527 1527 1528 1528 1529 1529 1529 1529 1529 1528 1527 1526 1526 1525 1524 1523 1523 1523 1522 1522 1521 1520 1520 1519 1518 1518 1517 1516 1515 1514 1513 1512 1511 1510
1513 1515 1516 1518 1520 1521 1522 1523 1523 1524 1525 1525 1525 1526 1526 1526 1526 1526 1525 1525 1524 1523 1522 1521 1521 1520 1520 1520 1520 1518 1518 1517 1516 1516 1515 1514 1513 1512 1511 1510 1509 1508 1507
1509 1512 1514 1515 1517 1518 1519 1520 1520 1521 1521 1522 1522 1523 1523 1524 1523 1522 1522 1522 1522 1521 1519 1518 1518 1518 1517 1516 1516 1515 1514 1514 1513 1513 1512 1511 1510 1509 1508 1507 1506 1505 1504
1506 1508 1510 1512 1513 1515 1516 1517 1517 1518 1518 1519 1519 1519 1520 1520 1520 1520 1519 1519 1519 1518 1517 1516 1516 1516 1515 1514 1513 1511 1511 1510 1510 1509 1509 1507 1507 1506 1505 1504 1502 1502 1501
1503 1504 1506 1508 1510 1511 1513 1513 1514 1515 1515 1515 1516 1516 1516 1516 1517 1517 1517 1516 1516 1515 1514 1513 1513 1511 1511 1510 1510 1509 1508 1507 1507 1506 1505 1504 1504 1502 1501 1500 1499 1498 1497
1500 1501 1503 1505 1506 1508 1509 1510 1511 1511 1512 1512 1513 1513 1513 1513 1513 1513 1513 1513 1513 1512 1511 1511 1510 1509 1508 1507 1507 1506 1505 1505 1504 1503 1502 1501 1499 1498 1498 1497 1497 1496 1495
1497 1498 1500 1501 1503 1504 1506 1507 1507 1508 1509 1509 1510 1510 1510 1510 1510 1510 1510 1510 1510 1509 1508 1508 1506 1506 1505 1504 1504 1503 1503 1502 1501 1500 1499 1497 1496 1495 1494 1493 1493 1493 1492
1494 1495 1497 1498 1499 1501 1502 1503 1504 1505 1505 1506 1506 1506 1506 1506 1506 1506 1506 1506 1506 1506 1506 1506 1504 1502 1502 1501 1501 1501 1500 1499 1498 1497 1496 1495 1494 1493 1492 1491 1490 1489 1489
1492 1493 1494 1495 1497 1498 1499 1500 1500 1501 1501 1501 1502 1502 1503 1502 1502 1502 1502 1502 1502 1502 1502 1502 1501 1500 1499 1499 1498 1497 1496 1495 1495 1495 1494 1493 1491 1490 1488 1487 1486 1485 1485
1490 1490 1491 1492 1494 1495 1496 1497 1497 1497 1498 1498 1498 1499 1499 1499 1499 1498 1498 1498 1498 1498 1498 1498 1497 1496 1496 1496 1495 1494 1493 1493 1492 1492 1491 1490 1489 1487 1486 1484 1483 1482 1481
1487 1488 1488 1489 1491 1492 1493 1494 1494 1495 1495 1495 1495 1495 1495 1496 1496 1495 1495 1495 1495 1495 1495 1494 1494 1493 1493 1492 1491 1491 1490 1490 1489 1489 1488 1487 1486 1485 1484 1483 1482 1481 1480
1485 1485 1486 1487 1488 1488 1489 1490 1491 1491 1491 1491 1492 1492 1492 1492 1492 1491 1492 1492 1492 1492 1491 1492 1492 1491 1491 1490 1489 1488 1488 1487 1486 1486 1485 1484 1483 1482 1481 1480 1479 1478 1477
1482 1483 1483 1484 1484 1485 1485 1486 1486 1487 1487 1487 1488 1488 1488 1488 1488 1488 1488 1488 1488 1488 1488 1488 1488 1488 1488 1487 1486 1486 1485 1484 1483 1483 1482 1481 1480 1479 1479 1478 1477 1476 1475
1480 1480 1481 1481 1481 1481 1481 1482 1483 1483 1484 1484 1484 1485 1485 1485 1485 1484 1484 1484 1484 1484 1485 1485 1485 1485 1484 1483 1483 1482 1482 1481 1480 1479 1479 1478 1477 1476 1476 1475 1474 1473 1472
1477 1478 1478 1478 1478 1478 1479 1479 1480 1480 1480 1480 1481 1481 1481 1481 1481 1481 1481 1481 1481 1481 1481 1482 1481 1481 1480 1480 1479 1478 1478 1477 1476 1476 1475 1475 1474 1474 1473 1472 1471 1470 1469
1475 1475 1475 1475 1476 1476 1476 1477 1477 1477 1478 1477 1478 1478 1478 1478 1478 1478 1477 1478 1478 1478 1478 1478 1478 1477 1477 1476 1475 1474 1474 1473 1473 1472 1472 1471 1471 1470 1469 1469 1468 1467 1466
1471 1471 1472 1473 1474 1474 1474 1474 1474 1474 1474 1474 1475 1475 1475 1475 1475 1475 1474 1475 1475 1475 1475 1475 1474 1473 1473 1472 1471 1471 1470 1470 1469 1469 1468 1468 1467 1467 1466 1465 1465 1464 1463
1469 1469 1470 1471 1471 1471 1471 1471 1471 1471 1471 1471 1471 1471 1471 1472 1472 1472 1472 1472 1472 1472 1472 1471 1470 1470 1470 1469 1468 1467 1467 1466 1466 1465 1465 1464 1464 1463 1462 1461 1461 1460 1459
1467 1467 1468 1468 1468 1468 1468 1468 1468 1468 1468 1469 1469 1468 1468 1469 1469 1469 1469 1469 1469 1469 1468 1468 1467 1467 1466 1466 1465 1465 1464 1463 1462 1462 1461 1460 1460 1459 1458 1458 1457 1456 1455
1466 1466 1465 1465 1465 1465 1465 1465 1465 1465 1465 1465 1465 1465 1465 1465 1466 1466 1466 1466 1466 1465 1465 1464 1464 1464 1463 1462 1462 1461 1460 1460 1459 1458 1457 1456 1455 1454 1454 1453 1452 1452 1451
1464 1463 1463 1463 1463 1462 1462 1462 1462 1462 1462 1462 1462 1462 1462 1462 1463 1463 1463 1462 1462 1462 1461 1461 1460 1460 1459 1459 1458 1457 1456 1455 1455 1454 1452 1452 1451 1450 1449 1449 1448 1447 1447
1461 1461 1461 1461 1460 1460 1460 1459 1459 1459 1459 1459 1459 1459 1459 1459 1460 1459 1459 1459 1458 1458 1457 1457 1456 1456 1455 1454 1454 1453 1452 1451 1450 1450 1448 1448 1447 1446 1445 1445 1444 1443 1442
1459 1458 1458 1458 1457 1457 1457 1457 1456 1456 1456 1456 1456 1456 1456 1456 1456 1456 1455 1455 1455 1454 1453 1452 1452 1451 1451 1450 1450 1449 1448 1447 1446 1445 1445 1444 1443 1442 1442 1441 1440 1439 1438